Ord, NE

9:42 PM CST on December 14, 2019 (GMT -0600)
Sharp

Weather History for KODX - November, 2019

Change the Weather History Date:

Tuesday, November 19, 2019

  Actual Average Record
Temperature  
Mean Temperature 42 °F 35 °F  
Max Temperature 61 °F 47 °F 73 °F (2007)
Min Temperature 24 °F 22 °F 10 °F (2016)
Degree Days  
Heating Degree Days 22 30  
Month to date heating degree days 554 493  
Since 1 July heating degree days 1252 1113  
Cooling Degree Days 0 0  
Month to date cooling degree days 0 0  
Year to date cooling degree days 837 845  
Moisture  
Dew Point 30 °F    
Average Humidity 65    
Maximum Humidity 92    
Minimum Humidity 31    
Precipitation  
Precipitation 0.00 in 0.03 in 1.85 in (1930)
Month to date precipitation 0.08 0.75  
Year to date precipitation 35.93 24.03  
Sea Level Pressure  
Sea Level Pressure 29.87 in    
Wind  
Wind Speed 4 mph ()    
Max Wind Speed 12 mph    
Max Gust Speed 18 mph    
Visibility 10.0 miles    
Events      
T = Trace of Precipitation, MM = Missing Value Source: Averaged Metar Reports

Daily Weather History Graph

Daily Weather History Graph

Search for Another Location

Airport or City:

Astronomy

Nov. 19, 2019 Rise Set
Actual Time 7:29 AM CST 5:12 PM CST
Civil Twilight 6:59 AM CST 5:42 PM CST
Nautical Twilight 6:25 AM CST 6:16 PM CST
Astronomical Twilight 5:52 AM CST 6:49 PM CST
Moon No Moon Rise 1:40 PM CST (11/19)
Length of Visible Light 10h 43m
Length of Day
9h 43m
Waning Gibbous, 51% of the Moon is Illuminated
Nov 19
Waning Gibbous
Nov 19
Last Quarter
Nov 26
New
Dec 4
First Quarter
Dec 11
Full

Hourly Weather History & Observations

Time (CST) Temp. Windchill Dew Point Humidity Pressure Visibility Wind Dir Wind Speed Gust Speed Precip Events Conditions
12:53 AM 30.9 °F 25.2 °F 26.1 °F 82% 29.88 in 10.0 mi NNW 5.8 mph - N/A   Clear
1:53 AM 28.9 °F 21.9 °F 26.1 °F 89% 29.88 in 10.0 mi NW 6.9 mph - N/A   Clear
3:53 AM 30.9 °F 27.5 °F 27.0 °F 85% 29.89 in 10.0 mi NNW 3.5 mph - N/A   Clear
4:53 AM 26.1 °F 20.5 °F 24.1 °F 92% 29.90 in 10.0 mi SW 4.6 mph - N/A   Clear
5:53 AM 27.0 °F 23.0 °F 24.1 °F 89% 29.92 in 10.0 mi SSW 3.5 mph - N/A   Clear
6:53 AM 25.0 °F 18.1 °F 23.0 °F 92% 29.93 in 10.0 mi NNW 5.8 mph - N/A   Clear
7:53 AM 28.0 °F 24.2 °F 25.0 °F 88% 29.94 in 10.0 mi West 3.5 mph - N/A   Clear
8:53 AM 32.0 °F - 28.0 °F 85% 29.94 in 10.0 mi Calm Calm - N/A   Clear
9:53 AM 41.0 °F - 30.9 °F 67% 29.94 in 10.0 mi Calm Calm - N/A   Clear
10:53 AM 46.9 °F - 33.1 °F 59% 29.93 in 10.0 mi Calm Calm - N/A   Clear
11:53 AM 55.0 °F - 34.0 °F 45% 29.89 in 10.0 mi NE 3.5 mph - N/A   Scattered Clouds
12:53 PM 57.0 °F - 33.1 °F 40% 29.88 in 10.0 mi ESE 4.6 mph - N/A   Clear
1:53 PM 60.1 °F - 32.0 °F 35% 29.84 in 10.0 mi SE 5.8 mph - N/A   Clear
2:53 PM 61.0 °F - 30.0 °F 31% 29.81 in 10.0 mi SE 9.2 mph - N/A   Clear
3:53 PM 60.1 °F - 30.9 °F 33% 29.81 in 10.0 mi SE 10.4 mph - N/A   Clear
4:53 PM 55.0 °F - 32.0 °F 42% 29.83 in 10.0 mi SE 8.1 mph - N/A   Clear
5:53 PM 48.0 °F - 32.0 °F 54% 29.84 in 10.0 mi ESE 5.8 mph - N/A   Clear
6:53 PM 44.1 °F 41.5 °F 30.9 °F 60% 29.86 in 10.0 mi East 4.6 mph - N/A   Clear
7:53 PM 44.1 °F 40.8 °F 32.0 °F 63% 29.86 in 10.0 mi ESE 5.8 mph - N/A   Clear
8:53 PM 43.0 °F 40.3 °F 30.9 °F 62% 29.85 in 10.0 mi SE 4.6 mph - N/A   Clear
9:53 PM 43.0 °F 38.8 °F 32.0 °F 65% 29.84 in 10.0 mi ESE 6.9 mph - N/A   Clear
10:53 PM 43.0 °F 38.8 °F 32.0 °F 65% 29.82 in 10.0 mi SE 6.9 mph - N/A   Clear
11:53 PM 43.0 °F 39.5 °F 32.0 °F 65% 29.80 in 10.0 mi SE 5.8 mph - N/A   Clear